Paso Robles, CA

5:21 AM PDT on April 27, 2017 (GMT -0700)
Paso Robles Municipal

Weather History for KPRB - August, 2012

Change the Weather History Date:

Tuesday, August 14, 2012

  Actual Average Record
Temperature  
Mean Temperature 82 °F 73 °F  
Max Temperature 102 °F 93 °F 110 °F (1967)
Min Temperature 61 °F 54 °F 45 °F (1974)
Degree Days  
Heating Degree Days 0 0  
Month to date heating degree days 0 0  
Since 1 June heating degree days 19 31  
Since 1 July heating degree days 4 4  
Cooling Degree Days 17 8  
Month to date cooling degree days 207 125  
Year to date cooling degree days 656 602  
Since 1 June cooling degree days 561 534  
Growing Degree Days 31 (Base 50)    
Moisture  
Dew Point 44 °F    
Average Humidity 38    
Maximum Humidity 67    
Minimum Humidity 9    
Precipitation  
Precipitation 0.00 in 0.00 in 0.02 in (1984)
Month to date precipitation T 0.03  
Year to date precipitation 5.88 8.82  
Since 1 July precipitation 0.01  
Sea Level Pressure  
Sea Level Pressure 29.78 in    
Wind  
Wind Speed 7 mph (West)    
Max Wind Speed 24 mph    
Max Gust Speed 31 mph    
Visibility 10 miles    
Events      
T = Trace of Precipitation, MM = Missing Value Source: NWS Daily Summary

Daily Weather History Graph

Daily Weather History Graph

Search for Another Location

Airport or City:

Trip Planner

Search our weather history database for the weather conditions in past years. The results will help you decide how hot, cold, wet, or windy it might be!

Date:

Astronomy

Aug. 14, 2012 Rise Set
Actual Time 6:21 AM PDT 7:52 PM PDT
Civil Twilight 5:54 AM PDT 8:19 PM PDT
Nautical Twilight 5:21 AM PDT 8:51 PM PDT
Astronomical Twilight 4:47 AM PDT 9:25 PM PDT
Moon 3:27 AM PDT (8/14) 5:48 PM PDT (8/14)
Length of Visible Light 14h 25m
Length of Day
13h 31m
Waning Crescent, 9% of the Moon is Illuminated
Aug 14
Waning Crescent
Aug 17
New
Aug 24
First Quarter
Aug 31
Full
Sep 8
Last Quarter

Hourly Weather History & Observations

Time (PDT) Temp. Dew Point Humidity Pressure Visibility Wind Dir Wind Speed Gust Speed Precip Events Conditions
12:53 AM 70.0 °F 44.1 °F 39% 29.78 in 10.0 mi Calm Calm - N/A   Clear
1:53 AM 68.0 °F 45.0 °F 43% 29.78 in 10.0 mi NNW 3.5 mph - N/A   Clear
2:53 AM 66.9 °F 48.0 °F 51% 29.78 in 10.0 mi Calm Calm - N/A   Clear
3:53 AM 64.9 °F 48.0 °F 54% 29.79 in 10.0 mi Calm Calm - N/A   Clear
4:53 AM 64.0 °F 50.0 °F 60% 29.78 in 10.0 mi NNW 3.5 mph - N/A   Clear
5:53 AM 62.1 °F 51.1 °F 67% 29.80 in 10.0 mi NNW 4.6 mph - N/A   Clear
6:53 AM 62.1 °F 51.1 °F 67% 29.82 in 10.0 mi Calm Calm - N/A   Clear
7:53 AM 64.0 °F 51.1 °F 63% 29.83 in 10.0 mi NNW 4.6 mph - N/A   Clear
8:53 AM 68.0 °F 52.0 °F 56% 29.83 in 10.0 mi Calm Calm - N/A   Clear
9:53 AM 75.0 °F 48.9 °F 40% 29.83 in 10.0 mi Calm Calm - N/A   Clear
10:53 AM 84.0 °F 41.0 °F 22% 29.81 in 10.0 mi Calm Calm - N/A   Clear
11:53 AM 91.9 °F 44.1 °F 19% 29.78 in 10.0 mi Variable 3.5 mph - N/A   Clear
12:53 PM 98.1 °F 43.0 °F 15% 29.76 in 10.0 mi Calm Calm - N/A   Clear
1:53 PM 100.9 °F 48.0 °F 17% 29.75 in 10.0 mi SSW 15.0 mph 21.9 mph N/A   Clear
2:53 PM 99.0 °F 39.9 °F 13% 29.73 in 10.0 mi SSW 17.3 mph 23.0 mph N/A   Clear
3:53 PM 95.0 °F 28.9 °F 10% 29.73 in 10.0 mi SSW 17.3 mph 23.0 mph N/A   Clear
4:53 PM 91.9 °F 26.1 °F 9% 29.73 in 10.0 mi SSW 24.2 mph 29.9 mph N/A   Clear
5:53 PM 89.1 °F 30.0 °F 12% 29.74 in 10.0 mi SSW 18.4 mph - N/A   Clear
6:53 PM 86.0 °F 34.0 °F 16% 29.74 in 10.0 mi SSW 15.0 mph - N/A   Clear
7:53 PM 82.0 °F 35.1 °F 18% 29.74 in 10.0 mi South 13.8 mph - N/A   Clear
8:53 PM 77.0 °F 48.9 °F 37% 29.77 in 10.0 mi West 6.9 mph - N/A   Clear
9:53 PM 73.0 °F 52.0 °F 48% 29.78 in 10.0 mi WNW 6.9 mph - N/A   Clear
10:53 PM 69.1 °F 53.1 °F 57% 29.79 in 10.0 mi West 4.6 mph - N/A   Clear
11:53 PM 64.9 °F 53.1 °F 65% 29.79 in 10.0 mi NNW 3.5 mph - N/A   Clear